Flag for Netherlands Weather past 2 weeks in 's-Hertogenbosch, Netherlands

Now
50 °F

Light rain. Broken clouds.


Feels Like: 43 °F
Forecast: 40 / 46 °F
Wind: 24 mph from West

Location: Volkel

Current Time: Mar 31, 2015 at 9:07:41 AM

Latest Report: Mar 31, 2015 at 8:25 AM


Visibility: N/A

Pressure: 29.33 "Hg

Humidity: 76%

Dew point: 43 °F

Location of 's-HertogenboschLocation

Historic Weather in 's-Hertogenbosch — Graph

°F

's-Hertogenbosch temperature yesterday

Maximum temperature yesterday: 48 °F (at 3:55 PM)
Minimum temperature yesterday: 41 °F (at 8:55 PM)
Average temperature yesterday: 45 °F

Past Weeks' High & Low Weather Summary

 TemperatureHumidityPressure
High63 °F (Mar 17, 2:25 PM)100% (Mar 16, 7:25 AM)30.39 "Hg (Mar 16, 7:25 AM)
Low27 °F (Mar 24, 4:55 AM)39% (Mar 17, 3:25 PM)29.24 "Hg (Mar 29, 5:55 PM)
Average43 °F84%29.98 "Hg
* Reported Mar 16 7:25 AM — Mar 31 8:01 AM, 's-Hertogenbosch, Weather by CustomWeather, © 2015

Note: Actual official high and low records may vary slightly from our data, if they occured in-between our weather recording intervals... More about our weather records

Advertising

's-Hertogenbosch weather history for previous 24 hours

 ConditionsComfort  
Time TempWeatherWind HumidityBarometerVisibility
8:01 AM
Tue, Mar 31
52 °FPartly cloudy.28 mph82%29.30 "Hg4 mi
7:25 AM54 °FPassing clouds.31 mph77%29.27 "HgN/A
6:55 AM52 °FPassing clouds.29 mph82%29.24 "HgN/A
6:25 AM52 °FLight rain. Mostly cloudy.25 mph88%29.24 "HgN/A
5:55 AM52 °FPartly cloudy.28 mph88%29.27 "HgN/A
5:25 AM52 °FPartly cloudy.26 mph94%29.27 "Hg6 mi
4:55 AM52 °FPartly cloudy.28 mph94%29.27 "Hg2 mi
4:25 AM52 °FDrizzle. Mostly cloudy.28 mph94%29.27 "HgN/A
3:55 AM50 °FDrizzle. Mostly cloudy.25 mph94%29.30 "HgN/A
3:25 AM48 °FLight rain. Overcast.23 mph100%29.33 "Hg3 mi
2:57 AM46 °FLight rain. Overcast.21 mph100%29.36 "Hg4 mi
2:55 AM46 °FDrizzle. Mostly cloudy.20 mph100%29.36 "HgN/A
2:25 AM45 °FLight rain. Partly cloudy.15 mph93%29.42 "Hg5 mi
1:55 AM43 °FLight rain. Mostly cloudy.15 mph93%29.47 "Hg4 mi
1:25 AM41 °FRain. Partly cloudy.13 mph100%29.50 "Hg3 mi
12:55 AM41 °FLight rain. Partly cloudy.12 mph93%29.56 "HgN/A
12:25 AM41 °FLight rain. Mostly cloudy.12 mph93%29.62 "HgN/A
11:55 PM
Mon, Mar 30
43 °FLight rain. Mostly cloudy.16 mph81%29.65 "HgN/A
11:25 PM43 °FDrizzle. Mostly cloudy.15 mph76%29.68 "HgN/A
10:55 PM45 °FPartly cloudy.17 mph66%29.71 "HgN/A
10:25 PM43 °FPassing clouds.8 mph66%29.74 "HgN/A
9:55 PM43 °FMostly cloudy.8 mph66%29.74 "HgN/A
9:25 PM43 °FPassing clouds.7 mph66%29.77 "HgN/A
8:55 PM41 °FPartly sunny.6 mph70%29.80 "HgN/A
8:25 PM43 °FScattered clouds.7 mph66%29.83 "HgN/A
7:55 PM45 °FPartly sunny.12 mph61%29.83 "HgN/A
7:25 PM45 °FPartly sunny.9 mph61%29.83 "HgN/A
6:55 PM46 °FScattered clouds.14 mph53%29.83 "HgN/A
6:25 PM48 °FCool.14 mph43%29.83 "HgN/A
5:55 PM48 °FCool.15 mph46%29.83 "HgN/A
5:25 PM48 °FCool.14 mph46%29.83 "HgN/A
4:55 PM46 °FPassing clouds.14 mph53%29.83 "HgN/A
4:25 PM46 °FPassing clouds.18 mph53%29.80 "HgN/A
4:04 PM48 °FBroken clouds.18 mph50%29.80 "HgN/A
3:55 PM48 °FBroken clouds.16 mph58%29.80 "HgN/A
3:25 PM46 °FScattered clouds.16 mph57%29.77 "HgN/A
2:55 PM46 °FPartly sunny.15 mph57%29.77 "HgN/A
2:25 PM46 °FBroken clouds.20 mph57%29.74 "HgN/A
1:56 PM46 °FScattered clouds.16 mph57%29.74 "HgN/A
1:55 PM46 °FPassing clouds.15 mph57%29.74 "HgN/A
1:25 PM46 °FScattered clouds.16 mph66%29.71 "HgN/A
12:55 PM45 °FBroken clouds.15 mph71%29.71 "HgN/A
12:25 PM46 °FPartly sunny.21 mph62%29.68 "HgN/A
11:55 AM46 °FBroken clouds.16 mph71%29.65 "HgN/A
11:25 AM45 °FPartly sunny.14 mph76%29.65 "HgN/A
10:55 AM46 °FCloudy.16 mph62%29.62 "HgN/A
10:25 AM46 °FMore clouds than sun.17 mph62%29.62 "HgN/A
9:55 AM46 °FPassing clouds.15 mph62%29.59 "HgN/A
9:25 AM45 °FBroken clouds.16 mph66%29.59 "HgN/A
Weather by CustomWeather, © 2015

See weather overviewHow to use our weather pages